timestamp,surface_pressure_avg,surface_temp_avg,battery_voltage,lat,long
2020-01-30 00:09:01+00:00,290.2096,0.82,12.73,47.84626,-54.09684
2020-01-30 00:19:01+00:00,292.608,0.8,12.65,47.84626,-54.09684
2020-01-30 00:29:01+00:00,299.4346,0.85,12.65,47.84626,-54.09684
2020-01-30 00:39:01+00:00,304.8563,0.89,12.65,47.84626,-54.09684
2020-01-30 00:49:01+00:00,305.1696,0.9,12.65,47.84626,-54.09684
2020-01-30 00:59:01+00:00,309.5613,0.9,12.65,47.84626,-54.09684
2020-01-30 01:09:01+00:00,316.3997,0.9,12.65,47.84626,-54.09684
2020-01-30 01:19:01+00:00,320.328,0.89,12.65,47.84626,-54.09684
2020-01-30 01:29:01+00:00,318.1479,0.87,12.65,47.84626,-54.09684
2020-01-30 01:39:01+00:00,323.5613,0.89,12.65,47.84626,-54.09684
2020-01-30 01:49:01+00:00,331.5363,0.9,12.65,47.84626,-54.09684
2020-01-30 01:59:01+00:00,331.9896,0.9,12.65,47.84626,-54.09684
2020-01-30 02:09:01+00:00,328.2613,0.9,12.65,47.84626,-54.09684
2020-01-30 02:19:01+00:00,331.5413,0.9,12.65,47.84626,-54.09684
2020-01-30 02:29:01+00:00,340.3046,0.9,12.65,47.84626,-54.09684
2020-01-30 02:39:01+00:00,340.2079,0.9,12.65,47.84626,-54.09684
2020-01-30 02:49:01+00:00,338.5714,0.9,12.65,47.84626,-54.09684
2020-01-30 02:59:01+00:00,343.2712,0.9,12.65,47.84626,-54.09684
2020-01-30 03:09:01+00:00,347.7614,0.92,12.65,47.84626,-54.09684
2020-01-30 03:19:01+00:00,341.1113,0.94,12.65,47.84626,-54.09684
2020-01-30 03:29:01+00:00,339.4413,0.93,12.65,47.84626,-54.09684
2020-01-30 03:39:01+00:00,345.93300000000005,0.94,12.65,47.84626,-54.09684
2020-01-30 03:49:01+00:00,345.168,0.97,12.65,47.84626,-54.09684
2020-01-30 03:59:01+00:00,338.1279,0.94,12.65,47.84626,-54.09684
2020-01-30 04:09:01+00:00,336.9095,0.96,12.65,47.84626,-54.09684
2020-01-30 04:19:01+00:00,340.1846,0.96,12.65,47.84626,-54.09684
2020-01-30 04:29:01+00:00,334.8513,0.9,12.65,47.84626,-54.09684
2020-01-30 04:39:01+00:00,329.3046,0.9,12.65,47.84626,-54.09684
2020-01-30 04:49:01+00:00,330.4147,0.9,12.65,47.84626,-54.09684
2020-01-30 04:59:01+00:00,327.0196,0.9,12.65,47.84626,-54.09684
2020-01-30 05:09:01+00:00,318.1763,0.89,12.65,47.84626,-54.09684
2020-01-30 05:19:01+00:00,314.9797,0.82,12.57,47.84626,-54.09684
2020-01-30 05:29:01+00:00,311.6663,0.8,12.57,47.84626,-54.09684
2020-01-30 05:39:01+00:00,304.518,0.8,12.57,47.84626,-54.09684
2020-01-30 05:49:01+00:00,296.983,0.7,12.57,47.84626,-54.09684
2020-01-30 05:59:01+00:00,295.1397,0.74,12.57,47.84626,-54.09684
2020-01-30 06:09:01+00:00,288.963,0.8,12.57,47.84626,-54.09684
2020-01-30 06:19:01+00:00,278.7764,0.8,12.57,47.84626,-54.09684
2020-01-30 06:29:01+00:00,273.2997,0.46,12.57,47.84626,-54.09684
2020-01-30 06:39:01+00:00,270.9381,0.4,12.57,47.84626,-54.09684
2020-01-30 06:49:01+00:00,265.133,0.39,12.57,47.84626,-54.09684
2020-01-30 06:59:01+00:00,256.1364,0.45,12.57,47.84626,-54.09684
2020-01-30 07:09:01+00:00,249.7765,0.49,12.57,47.84626,-54.09684
2020-01-30 07:19:01+00:00,246.4897,0.5,12.57,47.84626,-54.09684
2020-01-30 07:29:01+00:00,241.4097,0.46,12.57,47.84626,-54.09684
2020-01-30 07:39:01+00:00,233.2248,0.46,12.57,47.84626,-54.09684
2020-01-30 07:49:01+00:00,229.0281,0.48,12.57,47.84626,-54.09684
2020-01-30 07:59:01+00:00,226.0631,0.5,12.57,47.84626,-54.09684
2020-01-30 08:09:01+00:00,220.688,0.5,12.57,47.84626,-54.09684
2020-01-30 08:19:01+00:00,216.0048,0.57,12.57,47.84626,-54.09684
2020-01-30 08:29:01+00:00,214.8648,0.6,12.57,47.84626,-54.09684
2020-01-30 08:39:01+00:00,213.6463,0.64,12.57,47.84626,-54.09684
2020-01-30 08:49:01+00:00,212.3564,0.68,12.57,47.84626,-54.09684
2020-01-30 08:59:01+00:00,212.69799999999998,0.69,12.57,47.84626,-54.09684
2020-01-30 09:09:01+00:00,214.2031,0.7,12.57,47.84626,-54.09684
2020-01-30 09:19:01+00:00,217.3314,0.7,12.57,47.84626,-54.09684
2020-01-30 09:29:01+00:00,220.9131,0.7,12.57,47.84626,-54.09684
2020-01-30 09:39:01+00:00,223.1831,0.7,12.57,47.84626,-54.09684
2020-01-30 09:49:01+00:00,224.4198,0.64,12.57,47.84626,-54.09684
2020-01-30 09:59:01+00:00,229.2648,0.6,12.57,47.84626,-54.09684
2020-01-30 10:09:01+00:00,235.4047,0.6,12.57,47.84626,-54.09684
2020-01-30 10:19:01+00:00,238.1914,0.6,12.57,47.84626,-54.09684
2020-01-30 10:29:01+00:00,239.7998,0.6,12.57,47.84626,-54.09684
2020-01-30 10:39:01+00:00,247.1414,0.6,12.57,47.84626,-54.09684
2020-01-30 10:49:01+00:00,252.9447,0.6,12.57,47.84626,-54.09684
2020-01-30 10:59:01+00:00,253.0564,0.6,12.57,47.84626,-54.09684
2020-01-30 11:09:01+00:00,252.8698,0.6,12.57,47.84626,-54.09684
2020-01-30 11:19:01+00:00,257.6614,0.6,12.57,47.84626,-54.09684
2020-01-30 11:29:01+00:00,258.7381,0.6,12.57,47.84626,-54.09684
2020-01-30 11:39:01+00:00,259.6897,0.61,12.57,47.84626,-54.09684
2020-01-30 11:49:01+00:00,265.2814,0.66,12.57,47.84626,-54.09684
2020-01-30 11:59:01+00:00,272.1764,0.64,12.57,47.84626,-54.09684
2020-01-30 12:09:01+00:00,274.1113,0.59,12.57,47.84626,-54.09684
2020-01-30 12:19:01+00:00,278.938,0.41,12.65,47.84626,-54.09684
2020-01-30 12:29:01+00:00,287.533,0.68,12.65,47.84626,-54.09684
2020-01-30 12:39:01+00:00,294.158,0.6,12.65,47.84626,-54.09684
2020-01-30 12:49:01+00:00,296.0179,0.6,12.65,47.84626,-54.09684
2020-01-30 12:59:01+00:00,302.3947,0.69,12.65,47.84626,-54.09684
2020-01-30 13:09:01+00:00,312.3163,0.8,12.65,47.84626,-54.09684
2020-01-30 13:19:01+00:00,318.558,0.8,13.13,47.84626,-54.09684
2020-01-30 13:29:01+00:00,320.6364,0.77,13.13,47.84626,-54.09684
2020-01-30 13:39:01+00:00,327.6413,0.86,13.13,47.84626,-54.09684
2020-01-30 13:49:01+00:00,335.5730000000001,0.89,13.13,47.84626,-54.09684
2020-01-30 13:59:01+00:00,338.5414,0.9,13.13,47.84626,-54.09684
2020-01-30 14:09:01+00:00,338.8113,0.9,13.13,47.84626,-54.09684
2020-01-30 14:19:01+00:00,344.1063,0.9,14.08,47.84626,-54.09684
2020-01-30 14:29:01+00:00,346.0913,0.9,14.08,47.84626,-54.09684
2020-01-30 14:39:01+00:00,344.6529,0.9,14.08,47.84626,-54.09684
2020-01-30 14:49:01+00:00,343.338,0.9,14.08,47.84626,-54.09684
2020-01-30 14:59:01+00:00,344.5264,0.9,14.08,47.84626,-54.09684
2020-01-30 15:09:01+00:00,345.5814,0.9,14.08,47.84626,-54.09684
2020-01-30 15:19:01+00:00,344.4796,0.9,14.32,47.84626,-54.09684
2020-01-30 15:29:01+00:00,344.7512,0.9,14.32,47.84626,-54.09684
2020-01-30 15:39:01+00:00,347.0463,0.9,14.32,47.84626,-54.09684
2020-01-30 15:49:01+00:00,347.7896,0.7,14.32,47.84626,-54.09684
2020-01-30 15:59:01+00:00,345.7014,0.6,14.32,47.84626,-54.09684
2020-01-30 16:09:01+00:00,344.3528,0.6,14.32,47.84626,-54.09684
2020-01-30 16:19:01+00:00,344.6813,0.6,14.4,47.84626,-54.09684
2020-01-30 16:29:01+00:00,339.8046,0.6,14.4,47.84626,-54.09684
2020-01-30 16:39:01+00:00,336.0397,0.66,14.4,47.84626,-54.09684
2020-01-30 16:49:01+00:00,336.0229,0.68,14.4,47.84626,-54.09684
2020-01-30 16:59:01+00:00,335.3847,0.67,14.4,47.84626,-54.09684
2020-01-30 17:09:01+00:00,328.2263,0.65,14.4,47.84626,-54.09684
2020-01-30 17:19:01+00:00,323.7496,0.63,14.32,47.84626,-54.09684
2020-01-30 17:29:01+00:00,322.3746,0.67,14.32,47.84626,-54.09684
2020-01-30 17:39:01+00:00,317.2396,0.67,14.32,47.84626,-54.09684
2020-01-30 17:49:01+00:00,308.3246,0.69,14.32,47.84626,-54.09684
2020-01-30 17:59:01+00:00,300.9764,0.69,14.32,47.84626,-54.09684
2020-01-30 18:09:01+00:00,296.1597,0.7,14.32,47.84626,-54.09684
2020-01-30 18:19:01+00:00,286.5947,0.7,14.24,47.84626,-54.09684
2020-01-30 18:29:01+00:00,276.6014,0.74,14.24,47.84626,-54.09684
2020-01-30 18:39:01+00:00,271.9614,0.66,14.24,47.84626,-54.09684
2020-01-30 18:49:01+00:00,267.2614,0.68,14.24,47.84626,-54.09684
2020-01-30 18:59:01+00:00,259.0748,0.76,14.24,47.84626,-54.09684
2020-01-30 19:09:01+00:00,251.563,0.8,14.24,47.84626,-54.09684
2020-01-30 19:19:01+00:00,247.5897,0.8,14.08,47.84626,-54.09684
2020-01-30 19:29:01+00:00,242.1748,0.7,14.08,47.84626,-54.09684
2020-01-30 19:39:01+00:00,234.3981,0.71,14.08,47.84626,-54.09684
2020-01-30 19:49:01+00:00,228.0898,0.8,14.08,47.84626,-54.09684
2020-01-30 19:59:01+00:00,222.9564,0.8,14.08,47.84626,-54.09684
2020-01-30 20:09:01+00:00,217.7864,0.83,14.08,47.84626,-54.09684
2020-01-30 20:19:01+00:00,212.2381,0.84,13.76,47.84626,-54.09684
2020-01-30 20:29:01+00:00,209.0481,0.87,13.76,47.84626,-54.09684
2020-01-30 20:39:01+00:00,208.0931,0.88,13.76,47.84626,-54.09684
2020-01-30 20:49:01+00:00,205.8464,0.84,13.76,47.84626,-54.09684
2020-01-30 20:59:01+00:00,204.4081,0.8,13.76,47.84626,-54.09684
2020-01-30 21:09:01+00:00,205.5781,0.8,13.76,47.84626,-54.09684
2020-01-30 21:19:01+00:00,205.4764,0.87,13.29,47.84626,-54.09684
2020-01-30 21:29:01+00:00,206.0131,0.9,13.29,47.84626,-54.09684
2020-01-30 21:39:01+00:00,208.0114,0.9,13.29,47.84626,-54.09684
2020-01-30 21:49:01+00:00,210.7214,0.8,13.29,47.84626,-54.09684
2020-01-30 21:59:01+00:00,212.3332,0.8,13.29,47.84626,-54.09684
2020-01-30 22:09:01+00:00,214.3514,0.8,13.29,47.84626,-54.09684
2020-01-30 22:19:01+00:00,218.8198,0.88,12.89,47.84626,-54.09684
2020-01-30 22:29:01+00:00,224.3514,0.9,12.89,47.84626,-54.09684
2020-01-30 22:39:01+00:00,229.1914,0.88,12.89,47.84626,-54.09684
2020-01-30 22:49:01+00:00,234.8514,0.82,12.89,47.84626,-54.09684
2020-01-30 22:59:01+00:00,242.2481,0.8,12.89,47.84626,-54.09684
2020-01-30 23:09:01+00:00,248.5414,0.7,12.89,47.84626,-54.09684
2020-01-30 23:19:01+00:00,251.3931,0.7,12.73,47.84626,-54.09684
2020-01-30 23:29:01+00:00,253.2264,0.71,12.73,47.84626,-54.09684
2020-01-30 23:39:01+00:00,256.923,0.75,12.73,47.84626,-54.09684
2020-01-30 23:49:01+00:00,260.6447,0.78,12.73,47.84626,-54.09684
2020-01-30 23:59:01+00:00,262.4164,0.8,12.73,47.84626,-54.09684
